Wind_Speed
9 10 10 10 11 11 11 11 12 12 12 12 11 11 12 12 12 12 13 14 11 9 9 6 1 2 2 4 6 6 5 4 4 5 4 4 5 6 6 7 7 8 8 8 8 7 4 3 2 1 3 6 4 3 4 4 2 1 2 3 1 3 3 5 7 7 4 1 4 10 15 10 4 10 11 7 9 11 12 18 20 21 27 26 20 14 10 18
9 10 10 10 11 11 12 12 12 13 13 13 13 12 12 12 12 12 12 13 12 9 8 8 4 3 3 4 4 5 4 2 3 5 5 3 4 5 6 6 6 7 7 7 8 7 5 4 2 1 6 7 4 4 4 2 3 2 3 2 2 5 5 6 8 9 5 1 3 10 14 12 7 10 13 6 6 11 10 14 20 23 27 29 27 21 15 18
9 9 10 10 10 11 11 12 12 13 13 14 15 14 13 13 13 13 11 11 11 9 7 8 7 4 4 5 6 4 3 2 4 6 6 4 4 4 4 4 4 5 6 6 6 7 7 6 3 4 7 6 5 5 4 3 2 1 3 2 4 5 4 6 9 10 10 5 2 8 12 11 9 10 13 8 4 6 10 15 18 24 30 30 30 26 20 21
9 9 10 10 10 10 10 11 11 12 12 13 14 15 15 14 14 14 12 11 11 10 7 7 8 6 4 5 7 6 4 5 6 8 7 5 4 4 4 3 3 4 5 5 6 7 8 8 4 7 8 5 4 5 3 4 1 1 3 3 4 3 2 6 9 9 11 9 4 6 8 8 11 12 13 9 3 5 16 25 24 26 29 28 30 28 24 24
10 10 10 10 10 10 10 10 11 11 11 12 13 14 15 15 15 15 14 12 11 11 8 7 8 6 5 5 6 9 5 3 5 10 8 6 4 4 3 2 1 2 4 5 6 6 8 9 4 6 6 4 3 3 1 3 3 2 1 4 3 4 2 4 6 6 9 9 5 6 6 7 9 12 17 15 8 11 19 25 25 26 27 27 27 27 27 28
11 11 11 11 11 11 11 11 11 11 11 12 12 13 14 14 15 15 14 13 12 11 10 9 8 7 6 5 5 8 7 2 4 9 9 7 5 4 4 3 2 1 4 5 5 5 7 9 4 4 4 3 1 3 1 1 3 2 2 4 5 6 5 4 4 6 8 8 6 6 6 8 8 8 17 23 24 24 22 20 18 18 22 25 25 26 29 30
13 13 13 12 12 12 12 12 12 12 12 12 12 13 14 14 14 14 14 13 13 12 12 11 9 7 6 5 5 7 10 9 8 9 10 9 7 6 5 4 4 3 4 4 5 5 6 9 7 5 5 3 2 2 2 0 3 2 1 3 4 8 9 7 7 8 8 9 9 7 6 8 10 7 8 22 35 32 27 24 20 17 17 20 24 27 30 30
14 14 14 14 13 13 13 13 13 13 13 13 13 13 14 15 15 15 15 14 13 12 12 12 10 8 6 5 5 7 11 12 10 9 12 11 8 7 6 5 5 5 4 4 5 4 6 9 8 5 3 2 3 3 1 1 1 2 2 4 3 7 9 9 10 11 10 10 11 9 9 11 11 8 9 27 38 30 28 30 27 24 20 20 24 28 30 31
15 15 15 14 15 14 14 14 14 14 14 14 13 13 14 16 15 15 16 15 14 12 12 12 10 9 6 5 6 6 9 9 9 10 12 11 10 8 6 6 6 6 5 5 5 4 5 7 7 4 2 4 4 2 1 1 1 2 3 4 4 6 8 9 11 12 11 12 10 8 11 14 10 7 14 30 32 24 25 28 29 29 26 24 24 27 31 32
15 16 16 16 16 16 15 15 15 15 15 15 14 14 14 16 16 16 16 16 15 14 13 11 9 8 7 6 4 4 5 6 7 10 12 12 12 10 8 7 7 7 7 6 5 4 3 5 6 3 4 5 4 2 1 1 1 2 3 5 7 9 9 9 10 11 10 11 11 9 8 10 7 2 11 19 13 12 17 20 25 26 27 28 26 28 31 33
17 17 17 17 17 17 17 16 16 16 16 16 16 15 15 16 17 17 17 17 16 16 13 11 9 8 8 6 6 6 6 6 6 9 12 13 13 12 10 9 8 8 8 7 5 5 3 4 5 2 2 2 2 2 2 1 1 3 3 6 8 8 9 9 8 9 7 6 9 10 6 6 3 4 17 23 14 13 14 16 21 23 25 26 26 29 31 34
19 18 18 18 18 18 18 18 17 17 17 17 17 17 17 18 19 19 19 18 18 17 13 10 8 8 8 9 11 10 9 9 8 9 11 13 14 14 11 10 10 9 8 7 6 5 4 3 4 2 1 3 2 2 2 1 1 2 1 3 6 7 6 7 4 3 4 3 4 5 4 5 6 13 27 25 18 17 16 17 20 22 24 25 26 29 32 34
20 20 20 19 19 19 19 19 19 18 18 18 18 18 17 18 20 20 20 20 20 18 14 10 8 9 9 10 12 10 9 10 10 10 10 12 14 14 13 11 10 9 8 8 7 5 4 4 3 2 1 3 2 2 2 1 1 1 2 1 4 7 5 3 1 1 3 3 4 4 5 7 8 20 28 20 18 17 16 20 21 22 25 25 27 30 33 35
22 21 21 21 20 20 20 20 20 21 20 19 19 19 18 19 20 21 21 21 21 18 13 10 9 10 10 10 10 10 11 11 11 10 11 12 13 13 13 12 10 9 8 7 7 6 4 4 3 1 1 2 3 3 0 3 3 0 1 1 2 3 4 5 1 2 2 3 6 5 5 10 9 15 19 17 19 18 18 22 22 24 25 27 29 31 35 36
23 22 22 22 22 21 21 22 22 22 22 21 21 20 20 20 20 21 21 21 20 17 13 13 11 10 10 11 10 10 11 11 12 12 12 12 13 13 12 11 10 9 8 7 7 6 4 4 3 0 2 1 3 3 2 4 3 2 1 3 3 0 4 8 4 6 4 2 6 5 4 10 12 13 14 14 16 17 21 23 23 25 26 28 31 33 36 37
24 23 23 23 23 22 22 23 23 23 23 23 23 23 22 22 22 21 20 19 18 16 14 13 11 8 7 8 9 8 9 10 10 11 12 12 12 12 11 11 9 8 8 7 7 5 3 2 1 2 2 2 3 3 3 4 4 3 1 3 3 2 3 6 4 5 5 1 3 5 3 8 9 8 10 11 14 17 21 24 25 26 28 30 34 35 38 38
27 26 25 24 24 24 23 24 24 24 24 24 25 25 24 24 24 21 18 17 17 16 14 10 8 7 7 9 8 8 9 9 10 11 12 12 13 12 12 10 8 8 7 6 5 4 3 1 2 1 2 2 3 4 3 3 4 3 1 2 4 4 3 4 4 2 2 2 4 4 4 12 14 14 17 15 16 19 23 28 28 28 31 33 35 37 38 40
31 29 28 27 26 25 25 25 26 26 26 25 26 26 26 26 23 19 16 16 15 12 10 8 5 2 7 10 8 7 7 7 8 10 11 12 13 13 12 10 8 7 5 3 4 3 2 1 2 0 3 3 2 5 2 4 4 4 3 2 4 3 4 6 5 2 2 1 4 3 6 16 18 21 27 24 19 22 28 31 30 30 34 36 36 37 38 41
33 32 32 30 29 28 27 27 27 27 27 26 25 26 26 24 20 15 12 10 8 5 5 6 7 4 4 6 7 9 10 11 12 13 13 13 13 13 12 10 9 7 2 2 2 2 1 1 3 1 3 3 4 6 8 8 7 6 5 4 5 5 5 6 6 3 1 2 7 8 10 15 17 19 24 23 17 23 32 31 27 31 35 35 34 36 38 42
31 32 33 33 32 31 29 29 29 28 28 26 25 25 21 15 11 9 9 10 10 11 12 11 12 13 13 13 16 16 18 19 19 17 15 13 12 11 10 9 7 4 2 3 2 2 3 0 3 7 8 7 8 8 6 4 6 5 4 4 5 6 7 7 4 3 1 2 8 10 9 12 17 17 22 23 15 19 28 24 25 33 36 33 33 36 38 42
27 29 30 31 32 32 31 30 30 29 27 26 24 21 14 8 5 7 11 15 15 15 18 18 19 23 23 22 23 21 18 17 17 17 15 14 12 8 7 6 4 2 2 3 3 2 4 2 8 10 8 6 5 6 6 5 5 4 4 4 5 5 7 8 4 4 2 1 6 7 8 13 17 16 22 23 13 19 26 19 25 37 37 32 32 36 38 39
26 26 26 27 29 30 30 30 30 29 26 24 21 16 12 11 10 10 11 13 17 18 18 21 23 26 27 26 27 25 18 13 15 18 16 15 14 10 7 5 4 3 2 3 4 2 2 6 11 7 7 7 4 5 7 5 5 3 3 2 4 4 5 7 4 4 2 2 4 6 8 15 18 17 23 24 16 24 30 22 29 39 34 31 32 36 37 36
25 25 25 26 26 25 25 27 27 27 24 21 18 14 12 11 10 11 9 7 15 20 18 20 22 25 27 26 26 24 19 14 14 16 17 16 15 12 9 7 5 3 2 4 6 3 2 8 8 6 10 8 5 4 6 5 3 3 4 3 5 3 1 4 4 4 2 2 4 7 10 14 15 16 20 19 14 23 30 26 33 39 34 32 33 34 34 34
23 23 24 25 26 23 21 23 23 22 21 19 17 14 11 9 7 8 8 5 8 12 15 17 18 22 24 22 21 19 17 16 13 11 15 18 15 10 9 8 6 3 5 7 9 7 7 7 6 9 7 8 6 4 6 5 2 3 5 7 6 4 5 6 3 4 3 2 3 5 11 10 7 10 11 7 4 12 19 19 28 35 33 32 32 31 32 34
21 21 21 23 25 21 17 18 18 18 17 14 13 11 7 6 5 6 6 3 4 7 9 12 13 16 18 16 16 13 10 13 15 12 11 17 17 9 5 8 6 5 7 8 8 6 9 7 11 9 3 6 6 4 6 8 3 4 6 11 10 7 7 6 3 5 4 3 3 4 8 8 2 4 8 4 3 8 9 9 21 30 24 25 30 30 31 33
19 19 18 21 23 19 14 12 11 12 10 8 8 7 5 4 3 6 5 2 4 5 4 6 7 8 10 9 10 9 3 7 13 15 12 14 18 11 4 5 4 3 6 7 5 4 4 3 7 6 5 6 5 5 6 8 5 3 5 8 8 6 4 4 1 2 1 3 3 4 1 9 4 3 7 5 5 10 10 8 17 26 21 21 28 28 29 31
18 17 16 19 21 18 11 7 9 8 6 6 6 5 4 3 1 4 5 3 5 5 5 5 6 7 8 7 11 11 2 3 4 10 14 14 16 12 5 4 2 2 5 5 2 3 2 4 4 4 6 5 5 6 7 10 7 4 3 5 6 6 5 5 3 2 3 1 3 0 3 9 9 6 6 4 5 11 14 13 15 20 22 24 27 26 26 28
18 17 15 17 20 18 11 7 9 8 8 7 4 4 3 4 3 3 3 4 5 4 5 4 6 8 8 10 16 10 1 0 3 6 13 13 14 10 6 6 5 3 4 5 4 3 3 5 5 6 5 4 6 5 8 12 5 4 4 6 6 6 5 4 4 3 2 3 4 4 4 5 10 5 1 3 3 10 14 16 14 14 20 23 22 21 21 23
17 18 17 15 17 16 11 7 8 9 10 8 7 6 5 6 3 4 2 5 4 3 3 5 7 6 6 9 13 9 2 1 1 4 8 10 12 6 2 6 6 4 2 2 5 4 2 3 5 8 6 5 5 1 4 8 3 4 6 6 5 4 4 3 3 2 1 1 7 8 7 5 10 4 3 2 3 9 11 12 12 12 18 19 17 16 16 20
16 18 17 14 14 13 9 5 7 10 10 10 10 9 8 7 5 2 4 6 2 1 3 5 6 5 7 7 5 7 3 1 2 6 5 5 8 4 1 3 4 4 1 4 4 4 1 2 1 3 4 5 5 3 2 3 3 8 7 5 5 4 4 3 1 3 1 4 9 10 13 10 8 3 5 4 5 9 10 9 8 10 16 18 15 13 14 17
16 18 18 14 11 12 11 7 7 9 11 11 11 12 11 6 4 3 8 4 1 1 3 3 3 4 8 5 2 3 3 2 3 7 4 2 4 2 2 3 2 3 2 5 4 4 1 1 2 3 5 7 8 5 4 4 4 6 5 3 3 4 3 4 4 3 1 6 6 5 9 11 10 6 4 6 7 8 9 9 8 8 13 16 12 11 13 15
16 17 18 15 11 12 12 10 7 8 11 12 13 15 10 2 2 5 4 1 0 3 3 3 2 3 5 2 1 4 2 2 4 6 5 3 4 4 4 5 5 1 3 4 4 4 2 4 3 2 5 8 6 4 3 3 2 4 4 4 2 4 3 4 3 1 3 8 4 2 4 5 12 11 7 8 11 11 10 11 12 10 13 15 11 11 14 14
16 16 18 16 13 11 12 11 7 9 11 14 16 11 7 1 7 5 4 2 3 2 2 2 1 2 5 2 2 3 2 3 5 4 3 4 3 5 6 5 6 2 3 4 1 3 3 4 2 3 4 9 10 5 3 2 3 6 5 5 3 1 0 4 4 2 5 8 3 3 3 4 8 8 12 17 18 17 16 19 21 16 16 18 15 16 17 19
16 16 18 18 15 14 14 12 9 11 11 17 15 6 4 6 5 5 7 7 2 1 2 3 3 2 2 3 4 4 3 4 4 5 2 3 2 4 6 7 6 2 1 2 1 2 4 7 5 6 3 11 14 8 6 6 5 5 4 5 5 5 4 5 4 4 7 7 4 1 2 4 4 3 9 14 16 18 20 24 24 22 23 22 21 22 23 24
17 17 19 20 20 18 15 12 12 12 13 17 11 3 5 9 2 4 7 6 1 0 1 2 5 3 3 3 3 3 5 5 3 5 4 5 5 5 5 7 9 6 4 3 3 3 4 9 6 2 2 10 10 4 6 8 3 3 3 4 3 4 5 3 3 4 2 5 5 3 4 6 4 3 5 5 7 12 17 19 18 23 27 23 23 27 27 27
20 20 21 24 26 20 13 13 14 14 16 15 6 4 10 8 3 5 6 6 5 5 4 2 3 4 4 3 3 4 4 2 1 3 4 4 4 6 4 4 10 12 9 6 3 3 3 6 3 2 1 5 3 0 3 3 3 3 2 3 3 3 5 2 3 1 4 3 7 2 6 9 5 5 7 6 5 8 10 10 13 22 24 19 23 29 28 26
25 25 25 28 29 22 14 16 18 17 17 12 6 9 8 4 6 8 5 6 6 7 7 3 4 6 5 3 4 5 3 1 2 3 3 3 4 6 6 4 8 15 17 12 4 4 4 5 4 3 2 2 2 2 2 2 4 5 3 5 2 2 3 3 2 3 2 5 6 4 12 14 9 7 3 5 6 10 11 8 10 16 16 16 26 30 26 24
32 29 30 34 33 25 17 17 20 20 16 8 10 14 6 3 8 8 8 7 5 7 8 7 6 7 7 6 4 5 5 3 4 4 4 4 5 6 8 5 8 16 24 18 6 3 4 4 5 2 2 0 3 2 1 3 3 4 3 2 3 3 2 2 2 3 4 4 4 11 17 15 11 7 2 5 10 14 13 9 10 13 12 17 28 30 26 25
34 28 29 36 33 25 19 18 21 22 13 6 12 13 4 3 6 7 13 12 6 7 8 8 8 5 6 7 4 5 8 7 7 5 5 5 5 5 9 7 8 14 22 20 8 2 3 3 4 2 2 1 2 1 4 2 1 3 1 1 2 2 4 3 3 2 3 3 5 12 16 13 8 7 8 11 14 14 11 10 11 13 16 23 29 29 28 27
37 23 20 28 25 20 22 23 24 19 9 6 11 8 1 2 6 12 21 18 7 7 7 6 7 6 5 6 3 4 7 7 7 6 4 5 5 5 8 9 5 5 11 13 7 0 3 3 5 2 3 1 3 6 8 9 6 4 3 2 1 1 2 1 2 2 4 4 4 6 12 14 6 7 10 12 13 12 12 12 12 13 20 28 30 29 28 27
36 14 12 20 20 23 31 27 19 13 5 6 9 4 2 4 6 11 20 22 13 8 7 5 8 8 6 6 4 5 6 5 6 6 4 6 6 5 10 15 10 7 6 4 4 3 3 3 6 3 2 5 7 6 3 5 8 8 8 8 8 6 4 1 5 3 3 4 4 4 10 17 6 6 7 8 8 9 11 12 11 13 22 29 30 30 28 27
29 11 11 20 24 36 39 21 12 12 6 9 10 5 5 6 5 6 12 17 13 7 4 4 7 8 7 6 5 6 6 5 7 7 5 6 9 7 11 17 16 14 10 4 4 5 4 2 4 7 8 7 5 1 1 2 5 5 4 5 6 7 7 6 8 5 2 2 3 3 6 16 5 6 5 5 7 10 13 14 11 14 24 28 27 28 27 27
24 15 13 21 32 45 36 9 8 11 6 14 15 10 8 6 3 4 7 10 8 4 5 5 5 7 7 4 5 5 7 7 7 8 4 5 10 11 10 16 18 12 7 2 1 3 4 2 4 7 7 3 3 4 3 2 5 2 4 4 6 8 9 8 6 3 2 5 4 3 7 16 7 3 4 6 6 10 14 17 15 16 23 26 25 26 26 28
25 18 16 25 38 44 28 6 9 11 9 13 14 13 12 8 6 8 7 7 8 6 7 8 5 6 6 4 6 7 8 8 6 7 7 6 8 9 13 21 20 11 6 7 8 9 6 3 4 5 6 5 4 2 3 3 1 4 5 5 8 10 8 4 1 1 5 9 7 5 11 17 7 2 2 5 6 8 11 16 18 18 21 24 25 25 26 27
19 12 16 31 45 42 24 9 7 10 12 14 14 13 12 8 12 17 12 10 11 7 5 7 6 6 6 4 5 8 8 9 8 5 7 7 4 3 14 26 23 14 14 15 15 15 9 4 7 7 8 10 11 9 5 2 3 3 3 6 10 13 14 9 3 6 12 8 8 7 15 19 12 5 4 5 7 8 10 13 17 20 24 25 25 27 28 28
11 6 9 21 36 37 27 18 8 4 10 14 11 10 14 12 9 13 14 12 15 10 3 3 4 6 6 6 7 10 10 10 7 4 5 6 4 2 9 23 25 22 19 15 15 14 5 3 10 13 15 14 16 17 8 7 5 6 7 10 13 15 17 12 7 11 10 3 5 15 21 21 21 19 15 9 7 10 11 10 12 19 25 27 29 32 32 31
8 5 7 10 16 19 20 20 14 7 6 10 7 6 15 17 8 6 12 13 15 14 6 3 5 8 8 10 11 12 12 9 6 9 12 10 5 4 2 10 18 20 14 8 12 11 3 5 14 19 22 21 21 23 12 9 8 10 10 13 14 15 16 14 16 19 8 4 11 23 23 19 20 27 29 19 13 14 14 13 14 20 25 28 30 32 31 31
13 8 16 20 12 6 11 19 20 16 10 10 9 7 11 15 11 10 12 9 10 13 9 7 11 15 15 15 13 11 12 9 8 14 15 11 6 4 3 3 8 12 9 3 6 6 2 8 15 18 23 22 20 23 15 8 8 9 10 14 16 17 18 19 24 24 14 12 19 22 19 17 19 29 34 23 15 17 19 23 24 24 25 25 25 27 29 31
20 9 15 24 15 10 20 27 23 20 17 13 10 9 12 17 18 15 9 4 5 12 13 12 16 21 22 18 13 11 11 11 12 14 12 10 9 6 5 6 4 4 4 2 3 3 2 7 13 16 19 18 19 22 16 9 8 9 9 12 17 20 19 20 25 28 25 24 23 20 19 20 23 31 29 20 20 22 22 25 28 26 26 25 25 28 30 32
25 15 11 17 16 14 21 22 14 12 15 15 11 12 15 18 21 17 10 10 10 8 12 18 23 21 16 14 13 13 14 16 17 16 12 10 10 6 4 6 3 0 1 2 3 3 4 8 11 12 12 14 19 22 14 9 12 13 10 13 23 23 15 17 25 26 23 22 20 19 19 19 26 30 21 18 27 28 21 22 28 33 34 30 29 31 31 33
35 33 20 10 7 10 14 13 10 9 10 11 13 14 16 19 23 19 13 18 20 12 13 22 26 16 7 8 14 19 23 23 21 21 19 13 10 9 7 6 5 3 3 4 3 2 4 6 7 8 9 11 16 18 12 8 8 9 13 22 29 23 15 20 24 20 15 15 17 18 16 17 24 21 12 14 23 21 17 20 28 35 37 33 32 35 37 36
33 37 31 16 6 9 12 8 8 10 9 12 17 19 18 21 24 19 12 14 22 26 24 21 19 13 6 10 21 31 38 38 34 34 33 23 12 14 17 16 15 12 7 4 4 4 5 4 4 7 9 11 15 16 8 4 3 8 14 21 24 21 20 24 25 19 14 12 13 15 16 20 23 17 13 18 18 13 15 22 28 32 33 32 34 40 42 38
Wind_Direction
353 354 354 354 355 354 354 353 351 349 347 347 349 352 352 354 2 10 13 17 18 11 8 6 314 228 168 153 152 150 140 148 155 153 157 137 116 104 90 73 62 49 42 41 39 41 44 37 346 352 163 156 131 131 106 47 44 119 105 88 142 176 199 187 186 196 170 230 218 191 185 179 207 205 202 216 223 223 222 221 220 222 224 230 232 231 231 209
344 347 349 350 350 350 351 350 348 346 342 340 340 340 342 341 345 356 4 10 16 13 4 2 343 269 230 198 178 166 154 160 179 188 190 161 127 112 99 82 67 51 42 34 32 35 45 48 15 89 156 155 130 132 124 61 56 86 109 86 221 197 200 198 193 197 186 268 211 192 191 195 215 199 196 214 227 213 223 230 225 229 230 232 234 233 233 213
336 339 342 344 347 350 350 350 349 347 343 339 336 335 335 334 333 340 349 360 10 13 4 358 348 309 258 232 214 196 193 232 229 207 192 174 149 131 119 98 70 51 39 28 29 30 30 32 47 134 152 139 125 128 100 56 83 92 101 102 243 216 230 227 212 213 216 242 207 189 197 209 222 198 192 209 232 205 220 229 221 230 236 234 232 231 228 214
327 331 335 339 343 347 349 351 351 349 346 341 336 334 332 330 328 328 334 345 357 4 4 357 347 327 288 250 228 216 231 272 249 215 197 185 167 154 144 121 76 38 25 18 23 28 22 18 60 139 139 116 115 131 79 28 119 178 122 165 231 190 248 244 224 231 230 235 234 189 187 220 226 205 200 199 216 236 233 236 233 240 249 241 231 228 224 216
319 323 327 332 337 342 346 348 348 348 348 344 339 333 330 329 326 323 324 329 339 351 354 354 349 331 303 272 240 228 240 308 231 205 203 197 181 177 170 160 113 18 2 4 11 18 16 14 61 136 120 101 89 110 30 17 118 146 164 214 224 160 206 278 243 236 229 223 218 181 175 223 214 208 213 200 204 240 244 250 250 253 259 252 239 232 224 217
313 316 320 326 332 336 339 342 343 344 344 344 341 333 329 327 325 322 320 321 324 334 340 343 349 339 312 284 256 232 225 247 212 206 212 207 196 195 190 203 216 311 334 350 356 356 8 19 52 127 98 83 71 101 97 359 155 178 267 242 240 202 211 289 266 239 233 218 208 194 211 224 198 222 228 216 228 244 251 261 261 259 256 251 245 234 226 221
308 311 316 320 326 330 334 337 337 339 340 341 341 336 330 326 325 322 319 318 317 321 329 333 338 340 321 286 263 239 235 246 252 236 222 212 210 210 202 217 231 262 314 334 329 334 359 20 51 96 93 85 156 146 82 143 175 156 212 242 240 220 228 268 271 248 239 231 235 237 243 231 213 238 243 234 244 248 251 257 258 259 254 246 239 231 230 227
304 307 311 316 320 325 328 331 333 335 337 338 339 337 331 327 325 322 320 318 317 316 318 324 328 333 330 289 260 256 254 254 259 241 219 214 218 217 217 227 235 258 298 313 308 325 353 16 47 75 99 100 148 171 55 80 165 109 178 230 225 227 242 266 269 253 247 248 252 255 250 244 239 251 262 258 261 259 253 255 255 255 254 247 238 231 229 226
300 304 308 312 315 320 323 326 329 330 332 335 336 336 330 326 325 324 321 319 319 317 315 319 320 323 327 292 262 268 264 254 253 236 218 219 225 224 229 238 241 250 272 293 298 311 348 17 32 40 149 142 132 155 74 88 231 171 185 221 222 240 258 265 260 251 254 256 249 247 253 254 255 270 271 267 271 270 257 253 252 252 251 247 241 234 229 226
295 299 303 308 312 316 319 321 324 326 328 330 330 332 329 324 324 322 320 319 319 317 314 313 313 314 314 293 249 249 268 257 245 234 227 229 230 230 234 239 243 246 260 281 289 291 323 11 15 42 136 142 127 145 128 89 268 241 237 254 246 251 265 262 255 252 256 261 242 227 252 261 245 226 265 265 275 276 261 252 250 249 248 246 241 235 230 227
290 294 298 303 307 311 315 318 320 321 323 326 327 329 329 324 321 320 319 318 317 317 314 310 307 302 304 285 231 233 271 272 250 238 234 236 233 232 237 240 245 249 257 271 282 277 276 341 2 40 142 152 121 144 173 134 308 276 283 281 275 281 275 255 254 258 249 262 242 223 251 267 180 167 245 254 267 275 268 258 252 249 247 244 239 234 228 227
287 290 294 298 303 307 311 313 315 317 319 322 324 326 329 324 320 320 318 317 316 315 310 304 300 296 300 278 252 258 276 274 265 252 239 238 234 233 238 241 246 253 260 269 278 280 259 289 343 355 177 166 144 111 159 151 310 253 19 292 299 342 307 244 247 255 205 236 231 196 268 259 186 226 246 252 262 266 261 254 251 248 246 241 235 231 227 227
284 287 291 294 298 302 305 308 310 312 314 316 319 321 325 322 319 320 318 317 316 314 307 299 295 295 293 277 270 274 273 273 271 258 245 241 236 236 239 241 248 255 261 268 276 289 257 246 318 337 154 148 151 137 166 61 68 202 83 30 313 353 324 231 104 81 172 210 178 139 284 262 211 234 247 256 258 255 249 247 248 245 243 238 233 229 227 226
281 283 287 289 293 296 299 303 304 306 308 310 313 315 319 317 316 318 317 316 314 311 303 297 298 293 280 271 279 279 269 273 270 255 250 244 239 240 241 243 249 255 264 272 277 291 263 239 290 305 145 120 138 142 9 15 56 192 15 39 6 349 288 279 318 130 156 213 176 144 274 269 258 249 253 258 255 250 245 248 249 245 243 238 233 229 228 227
276 279 283 285 288 291 294 296 299 301 303 306 308 310 314 314 314 316 315 313 311 307 300 297 296 288 277 273 275 275 272 268 261 254 250 246 242 241 242 245 249 256 268 275 277 288 275 241 254 149 137 143 128 117 1 356 16 23 344 307 338 215 273 299 277 189 206 229 170 162 248 273 277 268 260 255 252 247 245 251 250 247 245 241 236 231 230 229
271 274 277 280 283 286 289 291 294 296 299 303 305 308 311 312 312 314 312 309 305 301 299 294 286 275 276 279 270 264 265 259 256 254 249 246 243 242 246 250 255 265 273 277 278 275 266 246 174 108 136 164 119 91 31 3 339 7 58 257 275 234 282 313 287 213 219 214 188 203 242 279 278 269 259 247 253 252 247 252 252 250 250 245 240 234 230 229
271 271 272 275 277 281 284 287 290 293 296 300 303 306 309 311 313 314 309 300 296 297 298 284 271 272 264 262 260 253 258 261 258 254 251 248 244 245 249 252 260 269 273 273 268 245 237 213 143 144 63 70 84 88 37 333 300 323 17 255 250 233 262 298 298 272 189 176 228 225 231 259 267 276 273 263 264 261 251 255 254 253 254 251 244 235 231 229
274 274 273 273 273 276 279 282 285 289 292 297 302 306 309 312 314 312 300 290 289 294 292 260 233 281 259 243 239 240 252 264 266 264 259 252 247 247 248 253 261 264 272 261 238 209 210 134 116 105 15 27 59 99 172 247 221 226 227 242 268 253 244 257 266 280 102 173 245 232 239 258 267 276 275 269 263 258 256 259 258 256 256 253 245 237 234 233
275 275 274 274 275 275 277 279 281 284 288 293 299 304 309 313 313 307 287 277 283 281 273 229 198 201 234 237 247 253 261 266 273 274 265 256 251 248 246 251 256 250 233 194 217 152 143 71 88 236 264 210 190 168 200 215 179 186 199 194 235 253 255 248 243 248 142 253 258 244 244 260 269 274 276 274 261 253 257 261 260 258 257 252 245 240 238 237
277 276 274 274 274 274 276 278 279 282 286 291 297 303 312 320 319 307 282 276 279 268 264 248 233 247 259 270 274 270 267 267 270 268 261 255 246 245 245 244 244 236 198 175 193 91 95 229 224 227 228 205 207 201 188 176 146 138 150 186 230 239 262 266 256 282 87 215 258 253 252 264 267 270 274 275 267 254 255 255 258 260 257 250 244 243 241 242
281 280 278 276 274 273 274 276 277 280 285 290 298 307 316 320 308 303 300 296 287 270 265 262 257 260 265 269 273 271 267 266 263 253 249 247 233 230 233 221 196 206 239 146 137 82 91 204 242 233 216 188 192 178 132 117 124 120 158 207 255 235 254 269 273 320 6 188 261 274 277 268 265 269 272 270 257 255 255 246 252 260 259 253 246 246 246 246
284 283 284 282 278 275 273 274 276 278 283 288 295 303 305 299 289 293 302 297 286 279 272 268 263 262 263 264 265 264 258 259 258 245 240 234 221 215 201 171 154 190 245 122 129 50 79 238 249 217 154 118 88 119 123 125 129 122 141 179 260 241 271 290 310 346 9 202 270 294 286 270 265 264 267 266 250 256 262 250 253 260 259 253 248 248 247 246
284 284 285 284 283 281 276 273 274 276 281 285 291 296 295 295 292 294 295 278 285 287 275 266 263 260 261 260 258 254 242 241 253 245 233 221 210 205 190 159 145 169 187 173 173 153 186 251 246 162 138 115 80 106 118 110 127 155 147 179 250 239 285 284 305 328 284 227 280 292 278 267 263 256 261 269 259 259 264 257 257 259 256 253 253 253 250 247
286 285 285 283 282 284 279 274 274 276 280 282 288 290 289 290 288 299 298 270 279 285 270 261 257 253 254 254 252 245 234 236 246 242 224 210 195 190 195 170 139 179 213 188 173 184 229 235 154 129 132 123 115 139 142 146 219 240 195 210 239 226 222 237 282 323 306 313 327 310 291 278 258 250 259 283 291 266 263 257 257 257 253 253 254 253 252 251
290 288 288 284 283 285 281 276 275 275 278 283 285 281 282 285 290 315 313 289 275 276 266 255 247 247 246 245 241 229 228 241 242 236 218 203 191 175 177 174 167 215 207 160 149 207 251 212 148 133 120 124 139 194 188 174 203 287 229 217 225 223 231 249 323 352 349 327 331 7 320 298 248 235 266 287 323 285 263 246 261 264 257 248 248 249 252 253
295 294 293 288 286 289 288 279 270 270 273 273 268 262 270 277 301 327 332 360 281 255 231 224 220 226 226 226 217 196 215 262 240 226 211 201 197 182 149 169 179 214 173 140 145 217 252 172 145 153 162 158 176 233 221 173 154 285 245 207 206 200 212 241 287 351 275 252 303 54 335 280 262 211 269 287 304 287 272 251 261 268 264 250 249 252 253 253
299 298 297 293 292 297 298 269 246 250 249 247 250 244 254 237 109 2 358 341 272 213 166 183 180 185 201 189 167 157 197 258 203 205 198 193 196 190 195 195 159 213 169 134 182 236 148 109 91 120 141 158 191 242 217 158 143 239 232 134 139 152 175 197 162 193 240 272 323 330 184 273 275 238 257 291 296 285 279 272 265 264 262 255 255 258 257 256
304 302 304 298 297 302 303 266 238 236 231 224 210 194 186 167 149 51 43 277 267 150 141 170 161 180 191 173 173 171 301 236 128 194 189 184 190 188 225 223 173 188 184 145 204 258 121 151 179 147 129 174 201 235 191 159 158 236 187 115 121 140 151 155 142 190 266 24 304 248 168 266 275 242 285 5 262 263 266 264 264 262 259 256 255 258 259 260
305 306 307 303 303 307 304 275 235 223 223 208 193 194 167 157 155 68 101 248 265 113 139 166 160 181 166 155 190 213 296 34 109 177 171 178 190 182 249 221 159 146 198 171 219 268 71 160 197 153 149 207 207 283 176 170 198 171 131 93 79 77 81 92 128 156 6 345 257 237 170 224 273 224 138 57 208 239 253 257 261 262 259 255 250 252 258 261
305 306 307 307 309 309 310 289 231 218 208 196 196 189 161 146 123 95 227 244 259 126 122 157 173 169 146 139 214 232 216 247 121 139 144 169 188 180 118 159 114 117 352 340 271 255 67 74 262 166 174 176 137 75 61 120 141 126 108 70 51 42 54 49 61 92 2 270 255 236 182 192 269 251 169 198 202 210 224 243 258 262 258 252 246 248 259 266
295 297 304 308 297 289 300 293 241 216 198 191 188 172 155 126 97 188 228 238 300 224 115 159 199 141 150 157 206 203 183 238 170 153 152 141 166 164 120 136 104 88 358 321 282 287 5 95 259 213 169 132 103 71 42 56 103 112 94 73 33 339 13 16 358 56 278 255 262 249 178 184 242 255 206 238 248 219 207 221 232 237 246 244 241 248 262 271
284 287 297 303 289 279 289 282 241 209 201 189 181 170 146 96 243 208 219 32 308 224 164 173 226 167 171 164 193 186 168 205 182 164 167 153 165 186 190 187 165 107 306 252 264 327 294 222 220 178 177 163 125 76 34 13 66 108 98 90 40 321 354 348 302 126 230 252 253 147 143 206 243 248 238 249 257 238 215 217 218 213 229 236 238 249 261 270
280 278 282 290 288 274 274 271 226 196 200 182 175 161 116 205 237 184 167 210 219 224 140 117 76 136 143 132 234 207 174 214 185 168 174 146 170 225 240 217 165 175 256 210 272 339 292 292 152 155 224 189 168 164 208 241 174 164 148 129 144 161 98 277 268 275 270 270 267 138 142 260 269 257 226 225 235 230 219 224 225 226 235 241 246 254 263 268
270 269 273 279 277 259 262 267 218 189 192 178 169 131 111 226 237 133 177 217 231 15 56 86 83 81 142 190 235 197 185 240 171 152 179 137 162 236 239 223 192 161 118 155 191 174 247 287 201 177 206 176 182 200 179 138 148 180 154 140 161 153 181 236 233 250 275 291 292 211 176 222 240 261 220 220 236 236 230 231 232 238 245 249 255 258 262 264
262 261 262 264 263 257 262 256 210 188 188 179 166 129 199 222 217 137 198 206 197 19 44 50 98 111 254 260 276 232 210 241 143 135 185 173 188 211 193 201 194 162 129 174 231 168 223 268 231 177 128 159 180 209 124 110 132 197 122 127 182 174 179 234 221 198 245 317 289 230 219 224 216 287 262 238 261 248 237 236 235 241 246 249 254 256 256 258
254 253 251 251 254 257 258 235 206 194 193 179 164 224 222 224 177 173 192 168 174 160 116 34 103 144 255 268 272 250 210 232 138 149 214 209 225 217 190 206 188 178 179 179 200 179 208 273 264 67 66 167 170 69 107 117 169 168 150 175 207 173 141 169 267 23 72 280 274 249 254 271 298 292 240 203 230 246 237 232 230 238 242 243 247 250 251 252
241 242 239 241 247 251 243 221 203 196 196 185 199 225 220 218 186 181 169 149 156 136 133 208 198 175 218 235 229 215 178 239 188 178 215 219 242 205 191 244 192 186 200 196 209 216 196 267 250 150 187 213 91 74 36 19 119 130 192 210 179 117 99 110 251 343 25 246 272 288 269 273 285 284 235 165 218 242 237 227 231 240 237 236 243 244 244 245
237 236 233 238 245 247 234 215 199 193 189 187 231 236 220 197 197 174 153 151 143 139 163 216 210 178 195 210 221 182 169 195 178 180 210 214 249 190 163 214 197 193 206 203 220 248 175 250 265 130 116 86 74 108 88 5 78 126 193 206 111 144 166 109 172 241 254 245 278 280 275 271 255 245 192 177 217 231 233 224 228 239 229 230 239 239 236 239
229 225 233 240 242 238 225 203 190 190 183 183 229 236 221 199 216 188 176 175 166 169 191 219 213 200 194 187 176 164 183 197 175 183 212 200 236 198 164 192 205 202 204 194 196 243 150 214 263 7 7 4 49 165 189 200 54 74 150 6 55 162 177 165 170 186 213 228 267 278 283 276 239 193 181 204 216 217 219 216 222 230 224 226 232 232 231 234
214 213 237 239 230 220 202 183 181 188 189 214 229 234 227 220 237 220 205 196 184 188 204 216 205 212 208 182 178 178 194 208 183 188 226 201 226 235 189 189 187 189 194 185 194 282 89 206 241 326 348 257 188 203 199 191 173 153 176 191 210 189 125 197 233 125 144 200 238 269 278 272 244 157 179 205 212 206 201 205 213 220 223 225 228 228 230 233
205 210 237 218 206 195 178 169 183 196 200 240 245 251 254 241 236 228 218 213 214 214 203 190 195 205 199 187 205 190 182 206 191 193 233 214 224 246 203 194 174 130 127 150 221 218 150 200 222 224 266 231 221 221 206 187 177 175 188 193 194 184 137 198 249 218 151 199 204 193 264 271 256 141 184 202 198 204 203 207 217 216 218 224 227 229 232 236
198 214 224 192 183 179 168 163 203 203 200 228 231 239 230 235 244 235 225 218 222 236 227 211 205 205 201 195 202 180 171 199 200 200 231 222 219 228 204 191 172 144 135 149 213 198 147 145 216 233 242 237 241 280 48 151 152 157 207 195 179 181 169 192 231 230 149 226 220 123 264 269 252 135 181 193 182 205 206 204 214 217 219 226 231 232 236 241
197 208 205 185 182 175 164 161 217 195 221 230 229 249 236 225 247 223 217 214 214 219 226 228 199 203 222 203 174 179 190 208 205 191 205 231 227 229 203 175 163 149 138 146 200 148 124 146 215 245 265 292 14 34 30 53 104 143 242 189 170 203 201 205 224 193 160 227 213 120 254 262 265 122 199 207 195 218 217 210 213 222 228 233 236 235 239 244
207 202 177 179 184 177 168 184 206 198 227 225 230 249 236 226 236 223 207 201 203 197 214 229 198 202 229 176 169 205 199 206 221 191 196 234 236 220 193 175 168 168 184 188 178 165 166 191 196 226 270 285 298 324 349 347 157 209 234 182 190 217 214 228 300 127 236 230 178 162 249 257 268 53 221 239 231 236 238 228 225 230 236 238 238 241 246 249
210 194 168 178 184 183 189 212 197 200 217 218 230 238 232 240 237 228 225 217 218 207 209 232 203 191 212 173 194 229 204 209 237 210 205 237 251 205 192 186 179 189 212 204 176 164 173 193 180 200 236 240 247 250 235 197 191 219 228 178 190 205 204 210 225 223 237 223 156 188 248 258 267 261 225 246 251 246 250 247 240 240 244 245 247 252 254 256
203 184 165 177 187 197 215 228 226 220 212 215 229 229 228 240 241 228 223 225 235 230 216 248 194 178 199 189 211 238 227 224 235 227 229 232 240 283 201 193 192 201 215 208 176 162 159 197 192 211 230 228 240 248 220 130 150 208 211 197 201 208 206 203 226 235 229 173 180 227 242 256 270 271 257 239 233 244 250 250 244 246 251 255 259 262 262 262
209 195 173 174 193 211 228 231 232 238 204 199 204 211 223 231 246 232 211 215 228 222 217 258 207 198 209 201 211 234 230 222 222 233 243 237 237 297 247 201 211 217 217 200 181 170 142 215 209 222 233 231 240 248 228 146 180 210 202 207 214 212 202 200 225 233 210 132 236 240 242 252 266 269 264 253 243 253 258 255 253 257 261 264 265 266 263 262
217 206 192 194 194 190 214 219 216 215 209 194 198 216 227 227 232 226 213 214 217 203 204 232 221 218 219 207 210 229 224 219 224 229 239 242 239 266 274 236 232 228 221 193 186 178 172 227 221 227 237 237 243 250 237 185 202 211 195 211 223 216 202 205 227 234 216 215 241 246 248 254 257 260 262 260 257 259 262 266 268 268 266 266 265 263 260 260
221 226 204 205 203 178 198 210 208 206 211 208 206 219 224 225 227 224 206 184 216 205 201 222 229 224 223 215 211 221 218 219 230 230 234 236 227 221 234 243 253 232 207 188 216 197 180 234 235 236 245 246 247 251 241 207 224 236 212 219 234 230 213 210 229 237 229 231 245 254 256 258 257 257 262 273 274 268 269 274 275 270 265 265 265 261 261 260
225 233 216 206 212 202 203 210 203 198 211 213 214 220 222 226 230 229 204 186 210 207 193 220 235 229 222 220 219 229 229 224 231 234 224 220 219 210 218 232 238 16 187 217 253 220 201 230 238 243 256 254 250 255 247 209 224 242 242 244 246 242 227 222 235 240 239 244 253 257 260 260 257 259 269 282 277 274 275 276 274 272 271 272 271 268 266 263
234 238 236 223 220 209 205 207 195 195 210 208 212 219 220 224 227 228 222 210 214 211 191 213 233 234 208 203 216 231 234 228 232 236 229 222 212 195 199 218 213 206 223 221 219 197 209 231 238 246 258 253 249 257 251 208 210 237 243 246 248 247 239 237 242 240 239 252 260 259 257 254 257 265 273 267 265 267 269 269 268 270 272 272 272 274 272 265
243 244 246 249 237 196 204 216 200 203 212 204 210 216 215 221 223 223 232 224 221 224 217 211 224 230 204 201 217 227 231 231 235 238 240 246 238 201 205 218 218 217 216 198 191 189 186 201 224 233 247 252 250 254 246 163 186 240 238 240 247 251 248 249 254 251 235 234 251 256 255 256 263 272 267 260 260 255 254 258 261 265 268 268 270 271 271 267
Height
1563 1562 1562 1561 1561 1560 1559 1559 1558 1557 1556 1555 1555 1554 1553 1552 1551 1551 1550 1549 1548 1548 1547 1547 1547 1547 1547 1547 1547 1546 1546 1546 1545 1545 1544 1544 1544 1543 1543 1542 1542 1541 1541 1540 1540 1540 1539 1539 1539 1539 1539 1539 1539 1539 1539 1539 1539 1539 1542 1545 1545 1551 1549 1544 1547 1545 1542 1540 1541 1541 1541 1543 1543 1543 1543 1544 1543 1543 1543 1542 1542 1541 1540 1540 1540 1541 1542 1543
1562 1562 1562 1561 1560 1560 1559 1559 1558 1557 1556 1555 1554 1554 1553 1552 1551 1550 1550 1549 1548 1548 1547 1547 1547 1546 1547 1547 1546 1546 1546 1546 1545 1545 1544 1544 1543 1542 1542 1542 1542 1541 1541 1540 1540 1540 1539 1539 1538 1538 1538 1539 1539 1539 1539 1539 1538 1540 1544 1545 1543 1547 1543 1540 1541 1540 1540 1539 1539 1541 1541 1542 1541 1541 1543 1543 1541 1542 1542 1540 1540 1539 1538 1538 1538 1540 1541 1542
1562 1562 1561 1561 1560 1560 1559 1559 1558 1557 1556 1555 1554 1553 1553 1552 1551 1550 1549 1549 1548 1547 1547 1546 1546 1546 1546 1546 1546 1546 1546 1545 1545 1544 1544 1544 1543 1542 1542 1542 1542 1541 1541 1540 1540 1539 1538 1538 1537 1537 1537 1538 1539 1539 1539 1539 1539 1539 1542 1543 1541 1542 1540 1539 1539 1538 1538 1538 1539 1540 1541 1541 1540 1541 1542 1541 1540 1541 1539 1536 1537 1536 1534 1534 1536 1537 1538 1540
1561 1561 1561 1560 1560 1559 1559 1558 1558 1557 1556 1555 1554 1553 1552 1551 1550 1549 1549 1548 1548 1547 1546 1546 1545 1545 1545 1545 1545 1545 1545 1545 1543 1543 1543 1543 1543 1542 1542 1542 1541 1541 1541 1540 1539 1539 1538 1537 1536 1536 1536 1537 1538 1539 1539 1539 1539 1539 1540 1540 1540 1541 1540 1538 1537 1538 1538 1538 1539 1539 1540 1540 1539 1540 1540 1540 1540 1538 1533 1531 1531 1530 1530 1532 1533 1535 1536 1537
1560 1560 1560 1560 1559 1559 1558 1558 1557 1557 1556 1555 1553 1552 1551 1551 1550 1549 1548 1548 1547 1547 1546 1545 1544 1544 1544 1544 1544 1544 1545 1545 1542 1541 1542 1542 1542 1541 1541 1541 1541 1541 1540 1539 1539 1538 1537 1536 1535 1535 1535 1537 1538 1538 1539 1539 1538 1539 1539 1538 1539 1540 1539 1537 1537 1538 1537 1538 1538 1539 1540 1538 1538 1539 1537 1538 1536 1530 1527 1527 1528 1528 1529 1530 1531 1532 1533 1534
1560 1559 1559 1559 1559 1558 1558 1557 1557 1556 1555 1554 1553 1552 1551 1550 1549 1548 1548 1547 1547 1546 1545 1545 1544 1543 1543 1543 1543 1543 1544 1543 1540 1540 1541 1541 1541 1541 1540 1540 1540 1540 1540 1539 1538 1538 1537 1536 1535 1534 1535 1536 1539 1538 1538 1539 1539 1538 1538 1539 1538 1539 1538 1536 1537 1537 1537 1538 1537 1538 1537 1537 1538 1536 1535 1534 1528 1523 1525 1526 1526 1527 1528 1529 1530 1530 1530 1531
1559 1559 1558 1558 1558 1557 1557 1556 1556 1555 1555 1554 1553 1552 1550 1550 1549 1548 1547 1546 1546 1545 1545 1544 1543 1543 1542 1542 1542 1542 1542 1540 1539 1540 1540 1540 1540 1540 1540 1540 1540 1539 1539 1539 1538 1537 1536 1535 1534 1534 1535 1536 1538 1538 1538 1538 1538 1538 1538 1538 1537 1538 1537 1536 1536 1536 1536 1536 1536 1537 1536 1536 1536 1534 1535 1528 1520 1523 1525 1524 1525 1525 1525 1526 1527 1527 1527 1528
1558 1558 1557 1557 1557 1556 1556 1555 1555 1554 1554 1553 1552 1551 1550 1549 1548 1547 1546 1545 1545 1544 1544 1543 1542 1542 1542 1541 1541 1541 1540 1539 1538 1538 1538 1539 1539 1539 1539 1538 1539 1539 1538 1538 1537 1537 1536 1535 1534 1534 1535 1536 1536 1537 1537 1537 1537 1537 1537 1537 1537 1537 1536 1535 1535 1535 1535 1535 1535 1536 1534 1534 1534 1534 1531 1520 1516 1522 1524 1522 1523 1523 1523 1524 1523 1523 1524 1525
1557 1556 1556 1556 1556 1556 1555 1555 1554 1553 1553 1552 1551 1551 1549 1548 1547 1546 1545 1544 1544 1543 1543 1542 1541 1541 1541 1540 1540 1540 1538 1537 1537 1537 1537 1537 1537 1538 1538 1537 1538 1537 1537 1537 1537 1536 1535 1535 1534 1533 1534 1535 1536 1536 1537 1536 1536 1536 1536 1536 1536 1535 1535 1534 1534 1534 1534 1534 1535 1534 1533 1533 1533 1534 1526 1514 1515 1519 1519 1520 1519 1520 1520 1520 1520 1521 1521 1522
1555 1555 1555 1555 1554 1554 1554 1554 1553 1553 1552 1551 1550 1550 1549 1547 1546 1545 1544 1544 1543 1542 1542 1541 1540 1540 1540 1539 1540 1539 1536 1536 1536 1536 1536 1536 1536 1537 1536 1537 1537 1537 1537 1536 1536 1535 1535 1534 1533 1533 1533 1534 1535 1536 1536 1536 1535 1535 1536 1535 1534 1534 1534 1533 1532 1533 1533 1532 1533 1533 1532 1531 1533 1535 1522 1510 1514 1516 1515 1517 1516 1516 1516 1516 1518 1518 1519 1519
1554 1554 1554 1553 1553 1553 1553 1553 1552 1552 1551 1550 1550 1549 1548 1546 1545 1544 1543 1542 1542 1541 1540 1539 1539 1539 1538 1538 1538 1536 1534 1535 1535 1535 1535 1535 1535 1535 1535 1536 1536 1536 1536 1535 1535 1535 1534 1534 1533 1533 1533 1534 1535 1535 1536 1535 1535 1535 1535 1534 1533 1533 1532 1532 1531 1532 1532 1532 1531 1532 1532 1531 1534 1532 1516 1509 1513 1513 1513 1514 1513 1513 1513 1514 1515 1515 1516 1517
1553 1552 1552 1552 1552 1552 1551 1551 1551 1550 1550 1549 1549 1548 1547 1546 1544 1543 1542 1541 1540 1540 1539 1538 1538 1537 1537 1536 1535 1534 1533 1534 1533 1533 1534 1533 1534 1534 1534 1534 1534 1535 1534 1535 1534 1534 1534 1533 1533 1532 1532 1533 1534 1535 1534 1535 1536 1535 1535 1534 1533 1533 1531 1530 1531 1531 1531 1531 1530 1533 1530 1526 1528 1521 1508 1509 1512 1511 1512 1511 1510 1510 1510 1511 1512 1512 1513 1514
1551 1551 1551 1551 1550 1550 1550 1549 1549 1549 1548 1548 1547 1547 1546 1544 1543 1542 1541 1540 1539 1538 1537 1537 1536 1536 1536 1534 1532 1532 1532 1532 1531 1532 1532 1532 1532 1532 1533 1533 1533 1533 1533 1533 1533 1533 1533 1533 1533 1532 1532 1533 1533 1534 1534 1535 1535 1534 1537 1536 1534 1533 1530 1529 1531 1530 1531 1531 1530 1533 1527 1514 1514 1511 1505 1510 1510 1509 1510 1508 1508 1508 1508 1509 1508 1509 1509 1511
1550 1550 1550 1549 1549 1549 1548 1548 1547 1547 1546 1546 1546 1545 1544 1543 1542 1541 1540 1539 1537 1537 1536 1535 1535 1535 1534 1532 1531 1531 1530 1530 1530 1530 1530 1530 1531 1531 1531 1532 1532 1532 1532 1532 1532 1532 1532 1532 1532 1532 1532 1533 1533 1533 1534 1535 1535 1536 1536 1537 1540 1536 1529 1529 1531 1530 1530 1530 1529 1533 1529 1511 1504 1507 1507 1509 1507 1507 1507 1505 1506 1505 1505 1506 1505 1506 1506 1507
1549 1549 1549 1548 1547 1547 1547 1546 1545 1545 1544 1544 1544 1543 1543 1542 1541 1539 1538 1537 1536 1535 1534 1534 1534 1533 1532 1530 1529 1529 1528 1528 1528 1528 1529 1529 1529 1530 1530 1530 1531 1531 1531 1531 1531 1531 1531 1531 1531 1531 1533 1532 1533 1533 1534 1535 1536 1539 1534 1533 1542 1540 1531 1530 1530 1529 1529 1529 1530 1531 1528 1514 1503 1503 1505 1506 1506 1506 1504 1503 1504 1503 1503 1502 1501 1502 1502 1503
1547 1547 1547 1546 1546 1546 1545 1544 1543 1543 1542 1542 1542 1541 1541 1540 1539 1538 1537 1535 1534 1533 1533 1532 1532 1532 1531 1529 1528 1528 1527 1527 1527 1527 1527 1527 1528 1528 1529 1529 1529 1529 1530 1530 1530 1530 1530 1531 1531 1532 1532 1532 1534 1534 1534 1536 1535 1541 1539 1532 1536 1537 1534 1531 1527 1529 1529 1528 1529 1528 1525 1514 1503 1500 1502 1504 1504 1504 1502 1500 1501 1500 1500 1499 1497 1498 1498 1500
1545 1545 1545 1545 1544 1544 1544 1543 1542 1541 1540 1540 1540 1539 1539 1538 1537 1536 1535 1534 1533 1531 1531 1531 1530 1531 1529 1527 1526 1526 1525 1525 1525 1525 1526 1526 1527 1527 1528 1528 1528 1529 1529 1529 1529 1529 1530 1530 1531 1531 1532 1534 1536 1534 1535 1536 1532 1537 1543 1537 1534 1536 1535 1531 1525 1527 1530 1528 1527 1527 1525 1515 1502 1498 1500 1502 1503 1502 1499 1496 1497 1497 1496 1494 1493 1494 1495 1496
1543 1543 1543 1543 1542 1542 1542 1541 1540 1540 1539 1538 1538 1537 1537 1536 1535 1534 1533 1532 1531 1530 1530 1529 1529 1531 1527 1524 1524 1524 1524 1524 1524 1524 1524 1525 1525 1526 1526 1527 1527 1527 1528 1528 1528 1529 1529 1530 1531 1532 1533 1535 1535 1534 1534 1534 1528 1530 1535 1534 1534 1536 1536 1533 1527 1526 1528 1528 1526 1527 1525 1514 1503 1498 1496 1498 1501 1499 1495 1492 1493 1492 1491 1489 1489 1490 1491 1492
1540 1540 1540 1540 1540 1540 1540 1539 1539 1538 1537 1537 1536 1535 1534 1534 1533 1531 1531 1530 1530 1529 1529 1527 1527 1527 1524 1521 1522 1523 1522 1522 1522 1522 1522 1523 1524 1524 1524 1525 1526 1526 1527 1527 1527 1528 1529 1529 1532 1532 1530 1530 1530 1529 1527 1526 1526 1527 1531 1533 1532 1532 1532 1529 1527 1527 1527 1527 1524 1523 1520 1512 1505 1498 1492 1494 1498 1495 1490 1489 1490 1488 1485 1485 1485 1485 1487 1487
1536 1537 1537 1537 1538 1537 1537 1537 1536 1536 1535 1535 1535 1534 1533 1533 1532 1530 1529 1529 1528 1527 1526 1526 1524 1522 1521 1519 1520 1520 1520 1520 1519 1519 1520 1521 1522 1522 1523 1524 1524 1525 1526 1526 1527 1528 1529 1530 1530 1526 1523 1523 1525 1526 1526 1528 1530 1530 1532 1534 1534 1534 1530 1524 1524 1527 1528 1526 1519 1515 1516 1512 1505 1497 1490 1490 1495 1492 1486 1486 1486 1482 1479 1480 1481 1480 1481 1482
1533 1533 1533 1534 1534 1534 1535 1534 1534 1534 1534 1533 1534 1533 1533 1533 1532 1530 1527 1525 1525 1525 1523 1523 1523 1520 1518 1518 1518 1517 1518 1517 1516 1517 1517 1518 1520 1520 1521 1522 1523 1524 1525 1526 1527 1528 1530 1530 1524 1519 1520 1523 1526 1528 1529 1530 1531 1531 1532 1533 1534 1536 1530 1523 1525 1527 1528 1527 1518 1514 1516 1510 1502 1496 1486 1485 1491 1484 1478 1483 1482 1475 1474 1475 1476 1476 1476 1478
1530 1529 1530 1530 1530 1531 1531 1531 1531 1531 1532 1533 1532 1532 1532 1532 1531 1530 1529 1524 1520 1521 1521 1519 1519 1517 1516 1516 1515 1515 1516 1515 1513 1513 1514 1515 1517 1517 1518 1520 1521 1522 1525 1526 1526 1528 1531 1526 1516 1516 1522 1525 1527 1530 1529 1529 1531 1532 1534 1536 1533 1533 1529 1523 1526 1529 1529 1527 1518 1516 1515 1503 1495 1492 1481 1476 1482 1477 1472 1477 1475 1469 1469 1470 1471 1471 1472 1475
1527 1526 1527 1526 1527 1528 1528 1528 1528 1529 1530 1531 1531 1531 1531 1530 1530 1529 1529 1525 1518 1515 1516 1515 1514 1513 1512 1512 1512 1513 1513 1512 1510 1510 1511 1512 1513 1515 1515 1517 1520 1521 1523 1523 1523 1527 1527 1518 1513 1518 1521 1521 1525 1530 1529 1529 1531 1531 1533 1533 1527 1528 1527 1521 1523 1528 1528 1526 1520 1520 1514 1495 1487 1484 1474 1470 1474 1471 1469 1471 1468 1465 1464 1465 1466 1467 1468 1470
1524 1524 1524 1523 1524 1525 1524 1525 1526 1527 1528 1529 1529 1529 1529 1529 1529 1528 1527 1525 1518 1512 1511 1511 1510 1509 1508 1509 1509 1510 1510 1509 1508 1507 1508 1509 1511 1513 1512 1514 1518 1519 1518 1518 1520 1521 1517 1512 1516 1519 1519 1519 1522 1527 1529 1527 1528 1530 1531 1527 1522 1523 1524 1521 1525 1528 1525 1525 1524 1520 1499 1476 1476 1479 1469 1469 1472 1467 1466 1466 1463 1459 1459 1462 1462 1463 1463 1463
1522 1522 1521 1520 1521 1521 1523 1524 1524 1525 1526 1527 1528 1527 1528 1529 1528 1528 1526 1524 1519 1511 1508 1507 1507 1505 1505 1506 1506 1507 1508 1507 1506 1506 1506 1507 1509 1510 1511 1512 1514 1513 1514 1517 1521 1520 1514 1512 1516 1516 1518 1519 1518 1522 1525 1524 1526 1527 1524 1520 1518 1519 1521 1523 1528 1528 1522 1520 1523 1522 1499 1470 1469 1476 1468 1467 1469 1464 1463 1463 1458 1454 1455 1458 1457 1457 1458 1458
1520 1520 1520 1519 1518 1519 1521 1522 1522 1523 1524 1526 1526 1526 1528 1528 1528 1528 1525 1526 1520 1508 1504 1504 1503 1502 1502 1503 1504 1507 1508 1505 1503 1504 1505 1507 1507 1508 1510 1511 1511 1510 1513 1517 1520 1517 1512 1513 1515 1514 1516 1518 1519 1519 1520 1523 1526 1524 1518 1517 1520 1521 1523 1525 1526 1525 1520 1519 1522 1526 1517 1487 1466 1465 1464 1464 1466 1461 1460 1459 1454 1451 1452 1453 1452 1452 1454 1454
1518 1519 1519 1518 1516 1518 1520 1521 1521 1521 1522 1524 1524 1526 1528 1526 1529 1527 1526 1530 1518 1499 1497 1500 1499 1499 1500 1502 1503 1504 1505 1501 1500 1502 1503 1505 1506 1507 1508 1508 1509 1509 1512 1515 1515 1511 1508 1512 1515 1514 1515 1519 1519 1515 1516 1520 1521 1519 1518 1519 1520 1521 1523 1524 1524 1524 1522 1526 1527 1523 1525 1508 1476 1465 1466 1464 1466 1464 1459 1455 1449 1448 1448 1447 1447 1448 1450 1451
1516 1517 1517 1517 1516 1517 1519 1519 1519 1520 1521 1522 1523 1526 1525 1526 1529 1526 1530 1533 1510 1490 1493 1496 1497 1498 1498 1501 1501 1501 1501 1499 1500 1501 1502 1504 1505 1506 1507 1506 1507 1508 1510 1511 1507 1504 1506 1509 1511 1512 1514 1516 1514 1511 1513 1516 1513 1515 1521 1522 1522 1522 1524 1524 1524 1526 1528 1531 1526 1518 1526 1517 1479 1464 1470 1470 1470 1464 1454 1449 1444 1443 1444 1442 1444 1445 1447 1448
1515 1515 1515 1516 1515 1516 1517 1517 1518 1519 1519 1521 1523 1524 1524 1527 1527 1526 1538 1533 1500 1485 1492 1493 1495 1497 1497 1500 1500 1499 1500 1500 1500 1500 1502 1504 1504 1505 1506 1506 1507 1509 1510 1509 1504 1503 1507 1508 1508 1509 1510 1509 1510 1513 1515 1513 1511 1515 1523 1523 1524 1526 1527 1528 1526 1525 1529 1528 1516 1509 1519 1511 1470 1452 1465 1472 1468 1459 1449 1444 1441 1440 1440 1440 1441 1443 1444 1446
1514 1513 1514 1515 1515 1516 1516 1516 1518 1517 1518 1520 1521 1522 1524 1525 1525 1532 1541 1523 1492 1488 1493 1492 1494 1496 1496 1499 1499 1499 1500 1499 1500 1501 1502 1503 1503 1504 1505 1505 1507 1508 1510 1511 1507 1505 1507 1509 1510 1508 1506 1506 1511 1517 1518 1517 1515 1517 1521 1520 1521 1526 1528 1531 1529 1527 1525 1512 1497 1495 1504 1506 1477 1450 1454 1458 1452 1447 1442 1440 1440 1438 1438 1437 1439 1441 1442 1443
1512 1512 1512 1513 1514 1515 1515 1516 1516 1516 1518 1519 1520 1522 1523 1524 1529 1534 1525 1502 1490 1492 1491 1492 1496 1495 1494 1496 1495 1497 1499 1499 1499 1500 1501 1502 1503 1504 1504 1504 1507 1509 1511 1509 1506 1506 1508 1508 1507 1505 1504 1507 1510 1514 1517 1520 1519 1517 1517 1515 1516 1520 1522 1525 1527 1528 1520 1495 1486 1496 1504 1506 1484 1451 1446 1448 1442 1440 1438 1435 1434 1435 1435 1435 1436 1438 1439 1440
1510 1510 1510 1511 1512 1513 1514 1515 1515 1516 1517 1517 1520 1520 1521 1527 1527 1518 1505 1492 1490 1490 1487 1491 1495 1494 1495 1495 1493 1496 1498 1497 1497 1497 1498 1501 1501 1501 1500 1499 1502 1505 1505 1505 1504 1503 1501 1502 1504 1502 1503 1505 1504 1510 1518 1520 1520 1517 1515 1517 1519 1520 1520 1517 1515 1519 1513 1491 1490 1506 1506 1496 1471 1442 1442 1446 1439 1437 1436 1432 1431 1431 1432 1432 1434 1436 1436 1438
1508 1508 1508 1509 1510 1511 1513 1513 1514 1516 1516 1517 1520 1517 1522 1528 1510 1494 1495 1491 1486 1487 1487 1490 1494 1495 1496 1494 1493 1496 1496 1494 1494 1495 1496 1499 1500 1499 1497 1497 1499 1497 1497 1503 1507 1502 1495 1496 1502 1501 1498 1499 1498 1501 1506 1509 1516 1516 1511 1513 1516 1520 1522 1514 1508 1512 1504 1486 1492 1509 1502 1479 1454 1434 1434 1435 1429 1428 1430 1429 1429 1428 1429 1430 1431 1433 1433 1434
1506 1506 1507 1506 1507 1509 1510 1512 1513 1514 1515 1517 1518 1518 1524 1519 1494 1484 1492 1487 1483 1488 1489 1490 1494 1496 1495 1493 1492 1492 1492 1491 1492 1495 1496 1499 1501 1497 1494 1495 1497 1496 1497 1503 1504 1501 1495 1487 1489 1491 1487 1489 1490 1489 1490 1497 1510 1513 1508 1509 1508 1507 1507 1499 1495 1495 1487 1479 1490 1505 1492 1461 1438 1425 1423 1424 1422 1425 1426 1425 1426 1426 1426 1427 1428 1429 1430 1430
1502 1503 1503 1504 1505 1506 1507 1510 1511 1512 1516 1516 1516 1519 1514 1496 1483 1485 1486 1482 1484 1487 1488 1492 1493 1493 1493 1493 1492 1490 1487 1486 1490 1494 1494 1495 1494 1488 1485 1486 1491 1493 1496 1500 1499 1500 1498 1482 1478 1485 1484 1485 1487 1486 1489 1494 1503 1511 1511 1509 1504 1497 1493 1493 1495 1495 1496 1494 1489 1487 1472 1443 1427 1422 1421 1425 1424 1423 1424 1423 1425 1424 1423 1424 1425 1425 1426 1427
1499 1498 1499 1498 1499 1502 1505 1506 1508 1511 1513 1514 1517 1514 1492 1472 1474 1480 1474 1474 1479 1480 1486 1492 1491 1492 1492 1490 1490 1489 1486 1487 1491 1493 1492 1492 1488 1482 1480 1477 1480 1485 1484 1489 1490 1491 1491 1481 1480 1488 1486 1488 1489 1487 1491 1490 1491 1506 1509 1500 1499 1498 1492 1494 1501 1507 1515 1505 1479 1467 1456 1434 1425 1420 1414 1419 1421 1420 1422 1422 1422 1420 1419 1422 1421 1420 1422 1423
1494 1494 1494 1492 1493 1499 1501 1501 1505 1509 1511 1514 1511 1494 1474 1465 1467 1468 1467 1469 1471 1474 1482 1485 1483 1484 1483 1481 1483 1486 1486 1488 1491 1490 1488 1489 1480 1473 1477 1473 1473 1476 1472 1475 1479 1477 1478 1476 1478 1485 1483 1487 1492 1489 1492 1491 1490 1499 1500 1493 1495 1500 1498 1499 1502 1504 1510 1504 1476 1458 1447 1430 1426 1421 1412 1418 1421 1416 1417 1418 1418 1417 1417 1419 1416 1416 1419 1419
1487 1488 1487 1484 1487 1493 1497 1500 1503 1505 1508 1512 1502 1479 1466 1465 1462 1462 1465 1466 1467 1470 1475 1475 1473 1473 1473 1473 1476 1482 1485 1484 1487 1488 1483 1481 1471 1461 1468 1469 1467 1469 1466 1469 1474 1472 1475 1475 1476 1486 1486 1487 1492 1490 1489 1492 1493 1492 1491 1492 1493 1493 1496 1502 1504 1497 1496 1499 1478 1452 1440 1426 1417 1414 1411 1415 1416 1409 1410 1415 1415 1413 1414 1414 1411 1412 1415 1415
1483 1484 1479 1475 1481 1488 1493 1499 1503 1506 1508 1506 1493 1475 1465 1462 1459 1460 1462 1461 1463 1466 1467 1466 1465 1467 1469 1469 1470 1477 1481 1477 1481 1483 1475 1472 1467 1457 1460 1460 1459 1463 1463 1468 1471 1468 1473 1474 1473 1485 1491 1489 1490 1490 1485 1486 1494 1496 1493 1495 1493 1490 1491 1494 1497 1491 1484 1488 1477 1455 1441 1413 1393 1399 1403 1402 1404 1402 1405 1410 1409 1408 1407 1407 1407 1408 1410 1410
1477 1478 1471 1467 1476 1482 1487 1495 1501 1504 1502 1492 1480 1469 1463 1461 1459 1459 1457 1458 1460 1460 1460 1460 1461 1464 1465 1468 1468 1469 1472 1472 1474 1476 1469 1465 1461 1455 1455 1454 1454 1459 1462 1466 1468 1467 1473 1474 1471 1482 1493 1490 1481 1477 1471 1469 1480 1490 1490 1493 1492 1491 1494 1491 1492 1490 1482 1481 1476 1469 1448 1402 1378 1392 1394 1389 1395 1398 1400 1401 1400 1401 1401 1400 1402 1403 1405 1406
1473 1473 1466 1464 1471 1475 1481 1491 1494 1493 1490 1481 1471 1466 1463 1461 1457 1456 1456 1457 1457 1455 1456 1456 1457 1458 1458 1463 1464 1462 1466 1469 1469 1470 1465 1460 1456 1450 1448 1447 1448 1455 1462 1469 1470 1467 1470 1471 1468 1474 1481 1477 1466 1462 1464 1463 1466 1473 1475 1478 1477 1480 1488 1489 1486 1485 1484 1476 1466 1468 1451 1399 1377 1393 1390 1386 1395 1396 1397 1397 1394 1396 1395 1395 1398 1399 1400 1402
1468 1466 1461 1462 1466 1467 1473 1480 1480 1480 1479 1470 1463 1460 1460 1458 1456 1455 1456 1456 1456 1455 1455 1454 1453 1454 1453 1454 1456 1458 1461 1462 1463 1465 1459 1454 1451 1445 1441 1442 1445 1448 1454 1462 1463 1460 1463 1466 1467 1465 1460 1459 1462 1465 1468 1466 1465 1469 1469 1468 1470 1473 1476 1476 1471 1471 1477 1473 1462 1470 1459 1403 1377 1392 1392 1389 1395 1393 1394 1394 1392 1393 1392 1391 1394 1395 1397 1398
1461 1459 1459 1461 1461 1460 1466 1472 1472 1471 1466 1458 1455 1455 1455 1455 1455 1454 1453 1454 1455 1455 1454 1452 1449 1450 1450 1450 1451 1455 1456 1454 1454 1455 1454 1451 1446 1440 1439 1442 1444 1446 1449 1454 1456 1458 1462 1464 1467 1464 1453 1453 1463 1468 1469 1467 1467 1468 1467 1467 1469 1467 1463 1461 1462 1463 1465 1461 1456 1470 1460 1404 1377 1392 1394 1390 1394 1392 1390 1390 1389 1390 1389 1389 1391 1391 1393 1394
1456 1457 1457 1460 1460 1458 1458 1459 1460 1460 1457 1454 1455 1454 1453 1453 1451 1449 1450 1450 1450 1450 1448 1446 1445 1445 1446 1448 1448 1448 1449 1448 1446 1446 1448 1445 1439 1435 1438 1439 1441 1444 1443 1443 1445 1451 1458 1460 1463 1468 1464 1458 1458 1461 1464 1468 1468 1462 1458 1461 1462 1460 1461 1463 1466 1469 1461 1446 1446 1458 1440 1394 1379 1394 1395 1391 1393 1390 1388 1388 1387 1388 1387 1387 1388 1389 1390 1391
1452 1453 1454 1457 1458 1456 1450 1445 1447 1451 1452 1453 1453 1452 1452 1451 1445 1443 1445 1445 1444 1444 1442 1441 1442 1442 1442 1445 1445 1443 1444 1443 1441 1442 1442 1439 1435 1434 1435 1435 1438 1438 1434 1434 1436 1439 1447 1450 1453 1462 1466 1460 1451 1443 1444 1453 1462 1459 1455 1456 1456 1457 1460 1458 1460 1462 1449 1436 1442 1444 1418 1385 1381 1391 1391 1391 1391 1388 1387 1387 1387 1386 1385 1384 1386 1386 1386 1387
1447 1447 1451 1455 1455 1451 1446 1443 1445 1447 1447 1450 1451 1450 1450 1446 1440 1439 1442 1443 1440 1440 1441 1439 1440 1440 1440 1442 1443 1441 1441 1441 1441 1441 1438 1435 1434 1433 1432 1433 1433 1431 1431 1433 1434 1435 1439 1440 1440 1442 1442 1441 1434 1425 1425 1437 1447 1449 1446 1446 1449 1450 1451 1453 1454 1444 1433 1437 1440 1425 1403 1392 1390 1386 1384 1388 1389 1385 1384 1385 1385 1384 1383 1383 1383 1382 1381 1382
1442 1439 1441 1446 1448 1448 1446 1444 1444 1443 1442 1446 1446 1443 1441 1441 1440 1440 1440 1438 1436 1438 1441 1439 1437 1437 1436 1437 1439 1436 1435 1439 1442 1439 1433 1431 1432 1432 1433 1434 1432 1430 1431 1432 1432 1433 1435 1433 1431 1429 1425 1423 1420 1415 1420 1429 1432 1433 1436 1438 1441 1443 1447 1452 1444 1424 1424 1436 1426 1403 1398 1405 1401 1383 1372 1378 1384 1382 1380 1380 1380 1380 1380 1379 1378 1376 1376 1376
1435 1430 1428 1430 1431 1433 1436 1434 1433 1436 1438 1439 1438 1435 1435 1437 1439 1438 1435 1434 1435 1437 1438 1436 1432 1431 1428 1429 1432 1431 1432 1437 1438 1433 1428 1429 1431 1433 1433 1433 1433 1432 1431 1433 1433 1431 1431 1428 1424 1422 1419 1417 1416 1413 1418 1425 1425 1426 1429 1429 1429 1432 1439 1441 1429 1416 1420 1419 1399 1388 1397 1405 1397 1375 1362 1369 1379 1378 1376 1374 1374 1376 1375 1374 1374 1372 1371 1371
1427 1424 1423 1424 1420 1419 1419 1419 1423 1429 1432 1433 1432 1431 1431 1431 1430 1428 1429 1433 1434 1432 1432 1430 1424 1421 1421 1423 1426 1427 1428 1430 1428 1425 1424 1425 1427 1430 1431 1431 1432 1433 1433 1434 1433 1432 1431 1425 1420 1419 1417 1416 1415 1411 1415 1425 1426 1424 1426 1426 1420 1418 1425 1429 1418 1408 1407 1401 1390 1393 1400 1399 1383 1361 1356 1368 1374 1372 1373 1371 1369 1369 1369 1370 1369 1366 1365 1366
1422 1419 1419 1419 1415 1414 1414 1415 1421 1426 1426 1428 1429 1426 1425 1425 1422 1421 1422 1424 1425 1425 1427 1424 1415 1413 1418 1423 1426 1426 1421 1419 1417 1417 1419 1421 1423 1426 1428 1427 1428 1433 1436 1434 1432 1432 1430 1423 1418 1418 1417 1415 1412 1408 1413 1423 1423 1421 1425 1423 1411 1407 1416 1420 1408 1396 1397 1399 1397 1400 1405 1395 1368 1352 1362 1373 1370 1368 1370 1368 1364 1362 1363 1365 1364 1361 1361 1360
1418 1417 1416 1415 1412 1410 1411 1412 1415 1418 1419 1421 1420 1416 1417 1417 1414 1413 1413 1411 1412 1415 1416 1414 1410 1413 1419 1424 1426 1421 1413 1410 1411 1410 1411 1415 1419 1421 1423 1424 1426 1430 1432 1431 1430 1431 1430 1424 1418 1420 1421 1415 1407 1407 1412 1417 1422 1427 1424 1411 1398 1401 1408 1402 1389 1386 1393 1398 1398 1399 1398 1380 1354 1352 1368 1371 1364 1366 1366 1362 1359 1356 1356 1359 1358 1355 1355 1353
1415 1413 1413 1412 1408 1405 1407 1407 1409 1410 1407 1405 1404 1402 1404 1404 1404 1409 1411 1409 1406 1405 1405 1406 1407 1412 1419 1420 1414 1406 1402 1404 1406 1407 1409 1413 1414 1415 1416 1419 1422 1424 1426 1427 1426 1425 1426 1422 1418 1420 1420 1411 1405 1407 1410 1416 1425 1423 1408 1393 1390 1394 1394 1384 1375 1379 1388 1394 1394 1389 1377 1359 1349 1357 1364 1360 1359 1363 1360 1355 1353 1350 1352 1354 1352 1349 1347 1346